Zurück zum Katalog

STARLINK-36508

AktivKommunikationVLEO
NORAD 67410·PAYLOAD·🇺🇸 United States

Gestartet Jan 12, 2026 von Cape Canaveral Space Force Station

Loading…

Nächste Überflüge (nächste 24 Stunden)

TLE

AktuellSource: CelesTrak SupGP

Epoche: Sep 15, 2026, 04:05 UTC

1 67410C 26005G   26258.17062500 -.00047845  00000+0 -17331-2 0  2589
2 67410  42.9994 248.2759 0001319 267.4536 350.7286 15.27598841    13

Verfolge STARLINK-36508 in Echtzeit mit AllMySat

Download on the App Store